[[{"header":{"parameterUnit":"m.s-1","parameterCategory":1,"la1":30.2991,"la2":30.254,"lo1":-89.0895,"lo2":-89.0444,"dy":0.0017,"dx":0.0017,"nx":28,"ny":28,"refTime":"2024-10-22T03:00:00:Z","depth":0,"parameterNumber":2,"parameterNumberName":"U-component_of_WINDS"},"data":[0,0,0,0,0,0,0,0,0,0,0,0,0,0,0,0,0,0,0,0,0,0,0,0,0,0,0,0,0,0,0,0,0,0,0,0,0,0,0,0,0,0,0,0,0,0,0,0,0,0,0,0,0,0,0,0,0,0,-2.1285,-2.1286,0,-2.1395,-2.1396,-2.1397,-2.1346,-2.1343,-2.134,-2.1338,-2.145,-2.1455,-2.1461,0,0,0,0,0,0,0,0,0,0,0,0,0,-2.1032,-2.1037,-2.1285,-2.1286,-2.1288,-2.1394,-2.1396,-2.1397,-2.1347,-2.1343,-2.134,-2.1337,-2.1448,-2.1455,-2.1461,0,0,0,0,0,0,0,0,0,0,0,0,0,-2.1142,-2.1039,-2.1285,-2.1275,-2.1276,-2.1394,-2.1396,-2.1398,-2.1347,-2.1343,-2.1339,-2.1335,-2.1446,-2.1454,-2.1462,-2.1597,0,0,-2.1488,-2.1491,0,0,0,0,0,0,0,0,-2.1136,-2.1151,-2.1275,-2.1276,-2.1277,-2.1352,-2.1348,-2.1465,-2.1348,-2.132,-2.1338,-2.1333,-2.1421,-2.1431,-2.1461,-2.1602,-2.1607,-2.1489,-2.1494,-2.1497,-2.15,0,0,0,0,0,0,0,-2.1128,-2.1146,-2.1328,-2.1277,-2.1278,-2.1266,-2.1277,-2.137,-2.1392,-2.1322,-2.1319,-2.1332,-2.142,-2.1453,-2.1463,-2.1608,-2.1488,-2.1496,-2.1501,-2.1504,-2.1867,-2.1871,0,0,0,0,0,0,-2.1121,-2.114,-2.1325,-2.1332,-2.1195,-2.1274,-2.1286,-2.1332,-2.1391,-2.1396,-2.1336,-2.133,-2.1441,-2.1453,-2.1467,-2.1629,-2.1497,-2.1505,-2.151,-2.1862,-2.1868,-2.1873,0,0,0,0,0,0,-2.1116,-2.1138,-2.132,-2.1235,-2.1257,-2.1282,-2.1335,-2.1337,-2.1369,-2.1402,-2.1405,-2.1365,-2.1438,-2.1455,-2.1565,-2.1632,-2.1509,-2.1516,-2.1857,-2.1864,-2.187,-2.1954,0,0,0,0,0,0,-2.1109,-2.1136,-2.1188,-2.1237,-2.1262,-2.1417,-2.1339,-2.1342,-2.1383,-2.1376,-2.143,-2.1434,-2.1436,-2.1553,-2.1573,-2.1641,-2.1523,-2.1851,-2.186,-2.1868,-2.1945,-2.1963,-2.1978,0,0,0,0,0,-2.11,-2.1206,-2.119,-2.1213,-2.1327,-2.1421,-2.1436,-2.1435,-2.1389,-2.1441,-2.1462,-2.1433,-2.1621,-2.1565,-2.1587,-2.1659,-2.1847,-2.1857,-2.1867,-2.1938,-2.196,-2.1978,0,0,0,0,0,0,-2.1164,-2.1213,-2.1195,-2.1321,-2.1368,-2.1412,-2.1478,-2.1458,-2.1518,-2.1509,-2.1506,-2.1518,-2.1633,-2.1656,-2.1592,-2.1792,-2.1727,-2.1742,-2.1773,-2.1794,-2.181,-2.1802,-2.153,0,0,0,0,0,-2.1193,-2.1266,-2.1304,-2.1411,-2.1436,-2.1453,-2.1494,-2.149,-2.1537,-2.1557,-2.1586,-2.1633,-2.1703,-2.1749,-2.1816,-2.1948,-2.196,-2.2009,-2.2025,-2.2038,-2.2052,-2.2125,-2.2148,-2.1907,-2.1907,-2.1907,0,0,-2.1253,-2.1289,-2.1335,-2.1425,-2.1461,-2.1536,-2.147,-2.1552,-2.1608,-2.1569,-2.1675,-2.1698,-2.1751,-2.1874,-2.1929,-2.1897,-2.2121,-2.2051,-2.2062,-2.2068,-2.2138,-2.2161,-2.2181,-2.1914,-2.1913,-2.1912,0,0,-2.1402,-2.1436,-2.153,-2.1567,-2.1621,-2.1632,-2.1655,-2.1703,-2.1717,-2.1824,-2.1796,-2.1863,-2.1983,-2.2022,-2.2058,-2.2223,-2.2199,-2.2244,-2.233,-2.2401,-2.242,-2.2437,-2.2497,-2.2519,-2.2258,-2.2258,-2.2258,0,-2.1471,-2.1583,-2.158,-2.1666,-2.1707,-2.1675,-2.177,-2.1806,-2.1879,-2.1909,-2.1872,-2.2023,-2.2056,-2.2188,-2.2228,-2.2258,-2.2284,-2.2239,-2.2418,-2.2435,-2.245,-2.2507,-2.253,-2.2263,-2.2263,-2.2262,-2.2262,0,-2.1665,-2.1744,-2.1813,-2.1885,-2.1934,-2.2024,-2.2035,-2.2084,-2.2076,-2.2091,-2.22,-2.2239,-2.2313,-2.2343,-2.2336,-2.2475,-2.2453,-2.2417,-2.2352,-2.2479,-2.2532,-2.2554,-2.2271,-2.2269,-2.2267,-2.2266,0,0,-2.1858,-2.1928,-2.1954,-2.1986,-2.2045,-2.2106,-2.2194,-2.2267,-2.231,-2.2361,-2.2436,-2.2539,-2.2507,-2.2547,-2.2544,-2.2606,-2.2736,-2.2562,-2.2564,-2.2594,-2.2893,-2.292,-2.2945,-2.272,-2.2724,-2.2727,-2.2888,0,-2.2012,-2.2167,-2.2168,-2.2311,-2.2384,-2.2356,-2.2433,-2.2477,-2.2494,-2.2558,-2.2576,-2.265,-2.26,-2.2625,-2.2685,-2.2707,-2.2796,-2.2695,-2.279,-2.2793,-2.2779,-2.2973,-2.3003,-2.3153,-2.2909,-2.2913,-2.2915,0,-2.2212,-2.2271,-2.2422,-2.2471,-2.2502,-2.2571,-2.2638,-2.27,-2.275,-2.2758,-2.2804,-2.2791,-2.2881,-2.2812,-2.2938,-2.287,-2.2908,-2.2925,-2.2931,-2.294,-2.2863,-2.2989,-2.3201,-2.3224,-2.2948,-2.2946,-2.2943,0,-2.2339,-2.2456,-2.2562,-2.2591,-2.265,-2.27,-2.2727,-2.2772,-2.2816,-2.2875,-2.2904,-2.2972,-2.301,-2.3063,-2.3069,-2.3018,-2.3196,-2.3127,-2.3205,-2.3206,-2.3245,-2.3243,-2.3467,-2.3268,-2.3268,-2.3267,-2.3267,0,-2.2512,-2.2606,-2.262,-2.2686,-2.279,-2.2789,-2.2893,-2.2915,-2.2957,-2.3026,-2.3005,-2.307,-2.3074,-2.3141,-2.3146,-2.325,-2.3267,-2.3276,-2.3277,-2.3279,-2.3278,-2.3305,-2.3295,-2.3273,-2.3272,-2.3271,-2.327,0,-2.2671,-2.2685,-2.2799,-2.2845,-2.2859,-2.2935,-2.2975,-2.3037,-2.3051,-2.314,-2.316,-2.3183,-2.3262,-2.3273,-2.3364,-2.3368,-2.3493,-2.3482,-2.3476,-2.3475,-2.3554,-2.3547,-2.3804,-2.3838,-2.3616,-2.3618,-2.362,0,-2.2781,-2.2853,-2.2908,-2.2953,-2.2983,-2.3055,-2.31,-2.3103,-2.315,-2.3213,-2.3269,-2.3345,-2.3406,-2.3533,-2.3558,-2.3628,-2.3619,-2.3704,-2.3629,-2.363,-2.3622,-2.3618,-2.3626,-2.3719,-2.3722,-2.3723,-2.3725,0,-2.2975,-2.2978,-2.3044,-2.3113,-2.3167,-2.3221,-2.3272,-2.3311,-2.3319,-2.3374,-2.3454,-2.3502,-2.3596,-2.3672,-2.3742,-2.377,-2.375,-2.3748,-2.3771,-2.3774,-2.3768,-2.3774,-2.3517,-2.3743,-2.3741,-2.374,-2.3739,-2.3738,-2.3114,-2.3176,-2.3225,-2.33,-2.3338,-2.3387,-2.3448,-2.3471,-2.3538,-2.3615,-2.3612,-2.37,-2.3749,-2.3841,-2.3873,-2.3943,-2.3915,-2.3947,-2.3955,-2.3963,-2.3971,-2.3757,-2.3955,-2.3955,-2.3954,-2.3954,-2.3953,0,-2.3307,-2.3337,-2.3406,-2.3478,-2.3537,-2.3513,-2.3568,-2.3619,-2.3697,-2.3744,-2.3805,-2.3898,-2.3972,-2.4003,-2.4076,-2.4126,-2.4119,-2.4145,-2.4142,-2.4149,-2.3991,-2.3966,-2.415,-2.415,-2.415,-2.415,-2.415,-2.415,-2.3415,-2.352,-2.353,-2.3654,-2.3684,-2.3771,-2.3804,-2.3849,-2.3887,-2.3992,-2.4054,-2.4073,-2.4114,-2.419,-2.4258,-2.4265,-2.4293,-2.4324,-2.4328,-2.418,-2.416,-2.4141,-2.4117,-2.433,-2.433,-2.4479,-2.4481,-2.4482]},{"header":{"parameterUnit":"m.s-1","parameterCategory":1,"la1":30.2991,"la2":30.254,"lo1":-89.0895,"lo2":-89.0444,"dy":0.0017,"dx":0.0017,"nx":28,"ny":28,"refTime":"2024-10-22T03:00:00:Z","depth":0,"parameterNumber":3,"parameterNumberName":"V-component_of_WINDS"},"data":[0,0,0,0,0,0,0,0,0,0,0,0,0,0,0,0,0,0,0,0,0,0,0,0,0,0,0,0,0,0,0,0,0,0,0,0,0,0,0,0,0,0,0,0,0,0,0,0,0,0,0,0,0,0,0,0,0,0,-2.2721,-2.2721,0,-2.2718,-2.2718,-2.2718,-2.2696,-2.2696,-2.2695,-2.2695,-2.2691,-2.2691,-2.2692,0,0,0,0,0,0,0,0,0,0,0,0,0,-2.2706,-2.2707,-2.2721,-2.2721,-2.2721,-2.2718,-2.2718,-2.2718,-2.2697,-2.2696,-2.2695,-2.2695,-2.2691,-2.2691,-2.2692,0,0,0,0,0,0,0,0,0,0,0,0,0,-2.2709,-2.2707,-2.2721,-2.271,-2.2709,-2.2718,-2.2718,-2.2718,-2.2697,-2.2696,-2.2695,-2.2694,-2.2691,-2.2691,-2.2692,-2.2711,0,0,-2.2693,-2.2694,0,0,0,0,0,0,0,0,-2.2709,-2.271,-2.2712,-2.2711,-2.271,-2.2707,-2.2711,-2.2716,-2.2697,-2.2701,-2.2695,-2.2694,-2.2697,-2.2697,-2.2698,-2.2711,-2.2711,-2.2693,-2.2694,-2.2694,-2.2694,0,0,0,0,0,0,0,-2.2709,-2.271,-2.272,-2.2712,-2.2711,-2.2705,-2.2704,-2.2712,-2.2703,-2.2701,-2.2699,-2.2699,-2.2696,-2.2697,-2.2698,-2.2711,-2.2693,-2.2694,-2.2694,-2.2694,-2.2737,-2.2738,0,0,0,0,0,0,-2.271,-2.271,-2.272,-2.272,-2.2707,-2.2705,-2.2705,-2.2709,-2.2703,-2.2702,-2.27,-2.2698,-2.2697,-2.2697,-2.2697,-2.2718,-2.2694,-2.2695,-2.2695,-2.2736,-2.2737,-2.2738,0,0,0,0,0,0,-2.271,-2.2711,-2.272,-2.2714,-2.2715,-2.2707,-2.2711,-2.2709,-2.271,-2.2703,-2.2701,-2.2703,-2.2696,-2.2697,-2.2707,-2.2718,-2.2695,-2.2695,-2.2735,-2.2737,-2.2738,-2.2761,0,0,0,0,0,0,-2.271,-2.2712,-2.2719,-2.2715,-2.2715,-2.2731,-2.2712,-2.2709,-2.2711,-2.2709,-2.2705,-2.2704,-2.2696,-2.2707,-2.2708,-2.2718,-2.2696,-2.2734,-2.2736,-2.2737,-2.2759,-2.2763,-2.2766,0,0,0,0,0,-2.2709,-2.2726,-2.272,-2.2721,-2.2725,-2.2732,-2.2732,-2.2723,-2.2712,-2.272,-2.2714,-2.2704,-2.2717,-2.2708,-2.2709,-2.272,-2.2734,-2.2736,-2.2737,-2.2758,-2.2762,-2.2766,0,0,0,0,0,0,-2.2732,-2.2725,-2.2718,-2.2734,-2.2734,-2.2728,-2.2737,-2.2728,-2.273,-2.2728,-2.2716,-2.2715,-2.2727,-2.2725,-2.2715,-2.2737,-2.2723,-2.2725,-2.2738,-2.2743,-2.2746,-2.2746,-2.2696,0,0,0,0,0,-2.2739,-2.2746,-2.2739,-2.2754,-2.2754,-2.2746,-2.2748,-2.2741,-2.274,-2.2739,-2.2735,-2.2734,-2.2737,-2.274,-2.2743,-2.2759,-2.2757,-2.2767,-2.277,-2.2773,-2.2775,-2.2781,-2.2785,-2.2744,-2.2744,-2.2744,0,0,-2.2754,-2.2751,-2.2756,-2.2758,-2.2757,-2.2763,-2.2746,-2.2753,-2.2757,-2.274,-2.275,-2.2747,-2.2744,-2.2757,-2.2763,-2.2756,-2.2786,-2.2775,-2.2778,-2.2778,-2.2784,-2.2787,-2.2791,-2.2745,-2.2745,-2.2745,0,0,-2.2783,-2.2782,-2.2793,-2.2792,-2.279,-2.2784,-2.2787,-2.2782,-2.278,-2.2789,-2.2776,-2.278,-2.2788,-2.2786,-2.2786,-2.2813,-2.2803,-2.2815,-2.2832,-2.2838,-2.2841,-2.2844,-2.2853,-2.2856,-2.2816,-2.2816,-2.2817,0,-2.2801,-2.281,-2.28,-2.2808,-2.2809,-2.2794,-2.2805,-2.2804,-2.2803,-2.2804,-2.2796,-2.2803,-2.2801,-2.2813,-2.2819,-2.282,-2.2822,-2.2815,-2.2842,-2.2845,-2.2847,-2.2855,-2.2858,-2.2818,-2.2818,-2.2818,-2.2817,0,-2.2832,-2.2838,-2.2847,-2.2847,-2.2849,-2.2858,-2.2849,-2.2852,-2.2844,-2.2839,-2.2848,-2.2844,-2.2846,-2.2848,-2.2841,-2.2858,-2.2854,-2.2844,-2.283,-2.2852,-2.2859,-2.2862,-2.282,-2.2819,-2.2819,-2.2819,0,0,-2.2876,-2.2868,-2.2872,-2.2871,-2.2867,-2.2871,-2.2879,-2.2881,-2.2883,-2.2883,-2.2888,-2.2894,-2.2885,-2.2885,-2.2877,-2.2883,-2.2903,-2.2872,-2.2872,-2.2877,-2.292,-2.2927,-2.293,-2.2896,-2.2897,-2.2897,-2.292,0,-2.2902,-2.2916,-2.2907,-2.2922,-2.2927,-2.2912,-2.2919,-2.2917,-2.2912,-2.2914,-2.2909,-2.2912,-2.29,-2.29,-2.2905,-2.2899,-2.2911,-2.2898,-2.29,-2.29,-2.29,-2.2934,-2.2941,-2.2963,-2.2923,-2.2923,-2.2923,0,-2.2936,-2.2936,-2.2952,-2.2945,-2.2947,-2.2954,-2.2953,-2.2957,-2.2953,-2.2949,-2.2949,-2.2939,-2.2946,-2.2932,-2.294,-2.2931,-2.2931,-2.2928,-2.2929,-2.2928,-2.2913,-2.2933,-2.297,-2.2973,-2.2928,-2.2928,-2.2927,0,-2.2964,-2.2969,-2.2979,-2.2978,-2.2972,-2.2976,-2.2974,-2.297,-2.2971,-2.297,-2.297,-2.2971,-2.2971,-2.2971,-2.2961,-2.2952,-2.297,-2.2956,-2.2965,-2.2966,-2.2969,-2.2969,-2.3005,-2.2971,-2.2971,-2.2971,-2.2971,0,-2.2995,-2.3004,-2.2991,-2.2997,-2.3007,-2.2996,-2.3005,-2.3001,-2.2998,-2.3001,-2.2989,-2.2993,-2.298,-2.2982,-2.2975,-2.2982,-2.2982,-2.2978,-2.2976,-2.2979,-2.2979,-2.2978,-2.2976,-2.2972,-2.2972,-2.2972,-2.2972,0,-2.3028,-2.302,-2.3029,-2.3022,-2.302,-2.3027,-2.3021,-2.3025,-2.3019,-2.3024,-2.3025,-2.3015,-2.3017,-2.3007,-2.3007,-2.3002,-2.3012,-2.3008,-2.3013,-2.3011,-2.3021,-2.302,-2.3057,-2.3061,-2.3026,-2.3026,-2.3027,0,-2.3048,-2.3055,-2.3048,-2.305,-2.3048,-2.3051,-2.3051,-2.304,-2.3041,-2.3037,-2.3042,-2.3043,-2.3043,-2.3046,-2.3038,-2.3038,-2.3033,-2.3046,-2.3033,-2.3035,-2.3031,-2.3031,-2.3031,-2.3049,-2.3049,-2.3049,-2.305,0,-2.3083,-2.3078,-2.3079,-2.3079,-2.308,-2.3079,-2.3078,-2.308,-2.3068,-2.3069,-2.3071,-2.3071,-2.3071,-2.3071,-2.3069,-2.3065,-2.3055,-2.3054,-2.3056,-2.3058,-2.3061,-2.3058,-2.3019,-2.3053,-2.3053,-2.3052,-2.3052,-2.3052,-2.3109,-2.3114,-2.3109,-2.3111,-2.3108,-2.3107,-2.311,-2.3104,-2.3105,-2.3104,-2.3098,-2.31,-2.3095,-2.3092,-2.3089,-2.309,-2.3084,-2.3087,-2.3088,-2.3088,-2.3089,-2.3061,-2.309,-2.309,-2.309,-2.3089,-2.3089,0,-2.3142,-2.3138,-2.314,-2.3138,-2.3139,-2.3129,-2.3127,-2.3128,-2.313,-2.3127,-2.3127,-2.3128,-2.3128,-2.312,-2.3119,-2.3121,-2.3116,-2.3121,-2.312,-2.3119,-2.3096,-2.3094,-2.3125,-2.3125,-2.3125,-2.3125,-2.3125,-2.3125,-2.3159,-2.3166,-2.3161,-2.3166,-2.3162,-2.3165,-2.3164,-2.3162,-2.3159,-2.316,-2.316,-2.3155,-2.315,-2.3148,-2.3147,-2.3144,-2.3144,-2.315,-2.3146,-2.3124,-2.3121,-2.3118,-2.3115,-2.315,-2.315,-2.3169,-2.3169,-2.3169]}]]